Location: Béaulencourt
(50.0796°N, 2.8795°E)
Time: 16:43:34
(UTC+00:00)

Dummy Sat-02 - Pass Details

Date: 24 April 2026
Orbit: 472 x 483 km, 86.3° (Epoch: 14 May)

Event Time Altitude Azimuth Distance (km) Brightness Sun altitude
Rises 20:39:02 0° 203° (SSW) 2,525 8.0 -14.7°
Reaches altitude 10° 20:41:14 10° 213° (SSW) 1,649 7.1 -14.9°
Maximum altitude 20:44:32 34° 280° (W) 803 6.2 -15.3°
Drops below altitude 10° 20:47:52 10° 347° (NNW) 1,658 8.1 -15.7°
Sets 20:50:06 0° 357° (N) 2,540 9.0 -16.0°
